Theta_e
305 307 308 309 307 306 306 306 306 307 307 308 309 308 309 309 309 309 309 309 309 309 309 310 311 311 312 314 313 313 313 314 314 312 313 317 317 317 318 319 320 317 316 317 316 316 318
305 307 308 309 308 308 306 306 307 307 308 309 309 308 309 309 309 309 309 310 310 310 309 311 311 314 315 313 312 314 313 315 316 314 315 316 315 314 315 317 318 316 316 317 315 316 318
304 306 307 308 308 308 308 307 306 307 307 308 309 308 309 309 309 309 310 309 310 311 311 311 312 313 312 313 313 314 314 315 315 316 313 315 313 313 315 317 316 315 317 315 316 316 318
303 305 306 306 307 308 308 308 308 307 307 307 307 309 308 308 308 308 308 309 309 310 310 312 312 314 313 312 313 313 314 315 315 315 315 314 312 313 314 316 315 314 316 316 316 316 318
303 303 304 305 305 306 307 307 308 308 307 307 307 307 309 308 308 308 310 308 309 310 311 312 313 314 313 313 313 313 314 315 315 314 312 313 313 313 315 315 314 314 316 315 316 317 318
303 303 303 304 305 305 305 306 307 308 307 308 309 308 308 308 308 309 309 309 310 312 311 312 313 314 313 313 313 314 315 314 316 315 314 314 314 313 315 314 315 314 313 314 315 316 316
303 303 303 304 304 304 305 305 306 307 307 309 310 308 308 308 308 309 309 311 311 313 310 312 312 312 313 313 314 314 315 315 315 315 316 315 314 315 316 314 314 313 313 313 315 316 318
303 303 303 303 303 303 304 304 305 306 308 308 310 309 307 308 308 308 309 309 307 308 313 310 311 312 312 312 312 313 314 315 314 315 314 315 317 313 312 314 314 315 312 315 315 315 316
303 303 303 303 303 303 303 303 304 305 307 308 309 310 308 307 308 308 309 307 307 307 314 310 311 311 310 312 312 312 312 313 314 315 315 314 313 312 312 314 314 314 314 315 316 314 315
305 304 304 304 304 303 303 303 304 304 305 308 308 309 310 307 310 308 309 307 308 309 321 312 312 311 310 310 313 311 310 312 313 314 315 315 312 314 314 314 313 316 313 316 315 316 317
306 305 305 305 304 304 304 304 304 304 304 306 309 309 310 308 307 312 309 307 307 310 318 312 312 311 311 312 311 313 310 311 313 313 313 313 314 315 314 312 312 313 312 316 316 317 316
306 306 306 305 305 305 304 304 304 304 304 305 309 309 310 310 308 306 306 306 309 321 313 312 312 312 313 311 311 311 311 310 310 313 313 313 312 313 313 312 310 311 313 315 316 316 319
305 305 305 305 305 305 305 305 305 305 305 305 308 309 309 310 311 307 308 311 321 317 312 312 313 313 313 312 312 312 313 312 313 313 315 315 313 313 313 315 312 312 313 317 317 317 318
305 305 305 305 305 305 306 306 306 306 305 305 308 309 309 309 309 310 311 317 314 313 313 313 313 313 313 312 311 312 314 314 312 312 315 315 316 313 312 313 313 314 314 319 319 318 313
305 304 304 305 306 307 308 308 308 308 307 306 307 309 310 309 308 309 315 317 315 313 312 313 314 313 314 313 311 312 312 312 311 311 313 314 315 312 312 311 311 315 315 311 315 313 313
304 304 304 305 308 309 309 310 311 309 309 307 308 310 311 308 309 312 317 315 314 311 312 313 313 312 312 312 313 312 312 311 312 312 311 312 313 312 312 311 312 312 311 316 313 319 322
304 303 305 308 310 310 310 312 312 311 310 308 308 314 310 308 314 315 318 314 313 311 311 313 313 313 312 311 312 313 312 311 310 311 311 312 312 313 311 312 313 313 314 312 312 313 317
303 304 309 312 312 311 312 312 312 312 311 310 312 322 309 309 318 314 314 313 310 311 311 312 311 312 311 310 311 312 312 312 310 310 311 310 311 311 312 311 311 311 312 312 312 315 311
305 308 312 312 311 311 311 311 312 311 309 308 309 312 309 313 320 315 311 311 311 311 311 311 311 311 310 309 310 309 310 311 309 310 309 308 312 312 312 311 311 312 311 312 310 312 314
310 311 311 311 311 311 312 312 312 312 309 308 309 318 314 312 311 313 312 311 311 309 310 309 310 309 310 310 309 309 309 310 309 309 307 307 308 310 312 310 311 312 313 311 310 311 313
311 310 310 310 311 312 313 313 313 311 308 307 310 315 308 315 313 311 311 311 312 312 309 309 310 310 310 310 310 309 310 309 309 308 308 306 306 305 306 306 307 309 309 312 310 312 310
311 311 311 311 312 313 314 313 312 311 307 307 309 311 311 311 310 311 308 312 312 311 310 311 310 310 310 310 309 309 308 308 308 309 309 307 308 308 307 307 306 305 305 306 309 311 310
312 312 313 312 312 313 313 313 312 311 308 306 306 308 308 312 311 311 312 311 311 310 310 310 310 309 310 310 308 308 308 308 308 308 309 309 308 309 313 310 309 310 309 307 306 307 309
313 313 312 313 312 313 313 313 312 312 309 305 304 306 311 312 309 310 310 309 310 310 311 310 309 309 308 307 307 307 308 308 308 308 308 309 309 308 309 311 311 311 305 306 307 309 306
313 313 313 312 313 312 313 312 312 312 312 310 306 305 310 311 308 308 309 309 309 309 308 309 309 308 307 307 308 310 308 307 308 307 307 307 308 309 310 312 313 308 306 306 307 308 306
314 313 313 313 312 312 312 313 312 311 311 311 310 307 306 309 307 306 309 309 309 309 307 307 306 306 307 308 310 312 312 310 309 307 306 306 306 308 309 311 312 309 305 306 306 306 306
310 311 312 312 313 313 313 313 312 311 310 311 311 310 309 310 309 306 308 308 308 308 308 307 307 306 306 308 310 310 310 307 308 309 307 307 307 308 308 310 310 306 305 306 309 308 307
305 306 307 309 310 311 312 312 311 311 310 310 310 310 309 310 310 310 309 307 308 307 308 307 307 307 306 308 309 310 309 307 307 308 308 309 308 308 309 311 309 306 304 306 307 308 307
300 301 303 306 306 307 309 310 310 310 311 310 309 310 310 309 309 310 310 310 310 309 307 308 308 308 308 308 308 307 308 307 307 308 305 306 307 308 309 309 308 306 307 306 308 307 307
Wind_Speed
13 15 17 19 18 17 16 15 12 8 5 3 6 7 6 9 11 15 19 19 15 12 14 12 9 9 7 3 6 10 8 2 3 6 5 6 9 7 1 13 19 15 13 22 7 6 10
11 13 15 18 20 19 17 15 14 11 8 4 4 5 3 7 9 14 15 13 14 11 10 11 8 11 6 4 7 10 6 7 6 3 3 5 4 3 15 12 15 13 16 6 2 2 3
10 12 14 15 18 20 20 16 13 12 9 6 4 3 1 3 7 10 10 15 13 12 14 10 7 4 11 5 7 10 7 7 7 1 7 6 9 6 11 4 14 17 9 2 4 6 3
9 11 12 14 16 17 19 19 16 11 11 8 6 4 4 4 5 9 11 12 16 15 11 16 9 7 3 8 12 8 5 3 7 3 8 4 7 14 8 9 6 8 6 4 3 3 6
8 10 11 13 15 17 18 20 20 14 9 11 9 6 6 7 7 5 12 11 10 16 14 12 14 1 3 8 8 7 6 3 4 5 3 12 4 7 12 4 3 5 5 8 5 7 1
9 10 11 13 15 17 18 21 21 18 11 12 12 9 7 7 6 5 10 13 6 11 15 8 18 2 13 8 6 9 5 3 2 2 4 6 4 4 5 4 5 6 7 9 7 7 5
9 10 11 13 15 17 18 20 22 20 14 14 14 12 8 8 9 7 9 12 7 2 13 8 7 9 7 7 8 4 7 7 3 1 3 5 4 5 7 6 3 8 10 11 8 4 5
7 9 11 12 14 16 18 20 22 22 18 14 15 14 9 8 9 9 10 7 5 4 1 2 2 5 6 9 4 6 8 2 4 2 3 3 4 8 6 7 8 9 13 8 6 5 2
6 8 10 12 13 15 17 19 21 23 22 15 13 16 11 6 8 7 7 6 5 2 4 2 1 5 3 7 6 6 6 2 1 8 9 3 3 5 7 5 10 3 4 7 6 5 4
6 7 9 10 13 14 16 18 20 22 23 19 12 15 12 7 3 4 4 5 4 1 1 7 2 3 2 3 1 5 4 1 1 4 9 3 3 5 4 2 6 2 8 8 10 4 4
4 7 8 10 11 13 15 17 19 22 23 21 12 12 11 6 1 2 5 5 3 1 3 6 4 5 2 2 5 3 8 1 3 5 2 2 7 8 8 5 5 4 5 2 7 5 6
4 5 8 9 11 13 15 16 18 21 23 22 13 10 12 6 4 3 3 2 1 2 2 3 2 5 2 3 2 6 2 2 4 2 5 2 2 3 4 4 5 2 2 2 2 4 2
5 6 7 9 11 12 14 17 19 20 23 22 14 7 16 6 1 2 2 1 3 5 3 6 4 6 7 5 2 2 4 5 4 4 4 4 3 3 5 3 3 3 5 2 4 3 4
6 6 7 8 10 12 14 16 19 21 22 22 13 6 15 9 5 1 1 1 7 4 3 1 3 9 3 7 1 2 3 4 8 6 0 2 3 6 8 4 3 5 2 4 4 3 4
6 7 7 8 9 11 14 16 17 20 22 23 13 5 15 14 6 1 0 5 5 2 1 6 6 4 3 3 2 3 4 4 5 7 4 4 2 1 2 3 3 4 5 3 1 3 3
8 7 7 7 10 12 14 15 17 18 21 22 11 4 10 11 6 3 2 2 2 1 2 3 4 2 5 5 4 4 3 3 5 5 5 5 1 1 0 3 5 2 1 3 2 2 1
9 8 7 8 8 11 13 16 17 18 19 20 8 3 10 7 4 4 3 3 2 2 4 4 5 4 2 3 3 3 4 2 6 6 10 5 2 2 2 1 3 3 1 3 2 2 2
9 8 8 8 7 9 12 14 17 18 18 18 5 2 9 6 2 3 2 4 2 3 1 2 3 4 4 5 5 2 3 3 6 6 5 3 3 2 2 3 3 2 3 2 2 5 1
8 8 8 7 7 8 10 13 15 18 19 17 6 3 6 4 2 2 2 2 2 0 1 3 2 3 4 4 2 4 3 1 5 4 3 5 1 2 2 2 1 4 3 2 3 2 3
6 7 5 5 7 9 10 12 13 15 16 14 5 3 3 5 4 2 1 2 1 0 1 1 2 2 3 2 1 3 1 2 1 3 3 4 3 1 2 1 2 2 3 4 2 1 3
6 6 6 5 5 8 10 11 11 12 12 9 4 1 1 3 3 3 1 0 2 1 2 2 3 3 3 2 2 1 1 3 2 1 2 2 2 3 6 5 1 4 4 5 6 5 1
8 7 7 8 7 7 9 10 11 11 9 4 2 2 3 2 2 3 4 4 3 3 2 4 3 2 3 3 4 3 5 4 4 3 2 3 2 1 3 2 4 6 8 8 6 6 7
13 11 10 10 9 9 8 8 8 10 7 2 3 2 1 2 2 2 1 5 2 1 3 1 3 4 5 2 3 3 3 3 1 3 4 2 3 3 3 4 7 6 5 9 4 4 3
19 16 15 15 13 12 9 7 6 7 7 4 4 2 2 2 1 1 1 1 3 3 2 3 1 2 1 3 7 5 5 3 4 3 1 3 2 1 3 4 2 4 3 3 9 3 8
23 22 19 16 16 16 11 8 6 4 3 5 5 2 0 3 6 2 1 3 1 3 2 2 3 3 2 3 3 3 2 2 2 3 4 1 3 2 1 2 7 2 2 2 4 5 8
27 25 24 21 18 17 13 12 10 7 3 2 3 4 1 3 1 2 4 2 2 3 3 4 4 4 2 2 2 2 2 2 2 3 1 2 3 1 0 2 4 2 4 3 3 4 8
14 17 20 22 21 18 17 17 14 10 6 4 2 3 1 2 3 2 2 2 2 3 1 3 2 2 4 2 2 4 3 2 3 3 4 2 2 4 4 4 6 4 7 3 2 4 9
3 4 7 10 12 17 19 18 16 13 10 8 6 5 3 3 9 9 7 3 3 2 2 1 1 1 2 2 2 3 2 2 1 2 5 6 5 4 3 3 7 12 4 5 4 7 8
2 4 2 2 4 7 10 12 14 11 7 10 11 8 7 7 8 12 20 20 17 13 6 3 1 1 2 2 2 2 2 1 3 3 4 3 5 3 5 4 2 15 1 8 7 9 9
Wind_Direction
56 49 39 37 32 34 31 27 20 11 0 357 8 15 33 26 17 13 9 4 0 345 349 358 3 336 343 5 356 341 324 351 240 236 238 216 232 234 151 211 205 220 204 240 309 360 295
56 47 38 36 37 34 31 27 24 15 7 351 6 23 67 47 16 9 7 10 15 1 347 351 3 31 346 59 353 345 354 24 349 263 162 163 29 150 306 254 202 207 212 204 302 181 318
53 44 37 31 34 31 30 22 17 15 8 358 328 360 168 17 0 11 24 25 1 28 26 357 6 17 31 25 31 19 34 37 360 53 136 138 29 193 293 223 175 206 187 106 235 147 163
51 41 36 31 30 29 24 21 13 3 6 2 333 285 258 272 318 339 343 322 331 8 353 28 38 30 60 21 24 18 9 43 32 107 164 161 271 275 255 261 184 189 141 181 145 111 151
50 41 32 30 28 25 20 16 10 5 356 1 346 303 271 263 287 320 2 350 341 359 12 16 11 90 25 24 12 8 26 67 61 91 107 168 178 252 270 212 153 182 174 190 142 201 71
38 37 32 27 28 23 19 16 13 11 4 1 351 328 267 261 257 275 343 354 354 32 13 22 24 94 14 359 25 26 11 27 60 139 44 155 245 238 256 200 166 198 183 201 145 181 221
33 25 25 23 23 20 18 16 14 11 2 1 360 344 295 256 245 267 329 357 334 278 32 76 49 71 5 352 18 24 75 77 58 86 29 249 269 210 243 234 5 201 200 203 102 128 195
29 23 18 19 16 16 16 14 11 9 3 354 1 356 339 259 247 265 310 343 326 294 255 34 0 357 4 11 49 33 8 32 44 32 352 327 307 15 334 310 289 289 208 104 76 158 167
21 17 14 9 10 10 13 11 9 7 3 357 355 2 352 327 252 268 298 332 328 261 275 146 329 17 14 34 14 40 59 57 246 94 86 193 297 285 267 274 304 68 176 141 144 196 223
3 7 4 8 3 4 7 8 7 5 4 360 352 359 359 17 41 310 296 326 333 184 82 1 59 23 16 316 33 73 25 350 269 80 173 230 328 349 240 211 12 5 340 149 141 152 145
358 350 356 357 359 357 1 4 5 2 4 2 354 357 360 7 36 301 286 308 325 141 60 327 3 328 20 40 316 318 353 326 3 312 241 348 354 358 44 2 344 355 293 247 157 147 75
338 343 345 347 349 354 355 1 3 3 2 359 356 0 5 12 25 340 325 327 87 38 5 352 331 339 249 109 102 305 230 295 272 34 64 109 242 37 328 309 342 297 310 64 114 95 33
321 330 335 338 341 347 354 357 360 3 1 358 354 358 8 14 289 355 3 101 38 62 241 343 338 332 305 2 69 34 344 49 41 34 3 10 63 123 343 319 229 259 229 53 29 27 231
315 320 323 329 337 342 349 356 358 360 359 357 355 358 10 7 5 14 128 232 59 267 7 19 291 294 36 351 122 0 310 46 27 345 157 118 0 9 341 65 319 315 40 107 174 199 218
294 301 313 322 333 341 345 353 357 357 358 355 353 1 8 9 12 59 19 55 184 20 339 327 281 303 118 85 246 316 84 24 36 9 8 359 48 180 49 358 309 311 38 69 348 218 87
282 290 299 314 330 340 343 348 355 360 358 356 354 16 358 8 33 41 50 105 100 310 315 267 18 4 14 33 348 26 50 11 354 10 340 348 57 8 25 249 237 13 336 36 280 248 142
272 282 291 308 331 342 346 346 352 2 0 360 7 12 356 9 34 44 75 52 65 60 337 326 359 328 18 4 339 40 47 95 6 331 301 353 240 207 261 327 24 20 69 233 231 151 135
259 267 282 302 329 347 349 349 350 357 3 6 24 319 347 355 25 25 52 8 6 38 0 318 297 318 336 351 360 57 46 55 6 312 333 69 292 174 87 114 47 316 310 284 104 325 86
240 255 275 301 324 351 358 355 352 355 360 3 350 311 358 20 34 72 138 110 355 274 46 340 337 13 344 338 323 19 31 30 7 15 20 348 301 339 344 48 169 262 175 321 302 5 257
250 243 263 287 316 334 353 353 354 355 354 357 7 0 353 42 71 8 173 94 142 285 266 292 296 235 266 264 139 335 5 130 7 24 331 312 294 73 189 256 321 230 192 232 306 93 296
260 251 280 288 306 320 332 346 348 351 352 358 8 28 307 320 65 88 235 51 163 206 248 271 217 229 348 289 274 52 275 184 198 109 237 16 307 48 284 277 281 267 280 201 219 246 172
231 245 271 290 297 307 318 335 346 348 351 338 13 355 315 255 266 235 143 194 207 140 230 154 271 47 327 314 4 322 355 33 47 224 273 164 259 281 289 67 262 264 247 245 242 249 270
249 259 267 267 270 282 296 310 329 342 352 344 352 356 332 252 205 269 152 122 133 63 169 260 339 312 240 30 342 316 298 289 322 344 335 332 330 16 281 339 305 292 239 202 199 197 194
244 250 262 265 263 267 279 292 310 336 9 26 11 338 310 276 242 299 103 118 171 197 322 112 293 293 331 326 308 287 251 262 263 204 305 312 275 81 269 338 357 236 61 345 194 200 215
247 249 251 257 257 260 258 268 281 302 345 21 36 72 86 284 7 272 232 258 156 209 215 252 158 214 289 324 298 275 194 228 193 41 298 225 309 262 165 260 271 188 229 149 131 284 202
245 248 252 256 251 253 254 261 259 262 275 342 19 30 94 323 66 350 315 352 293 212 151 163 239 227 179 264 271 267 277 354 188 168 185 288 287 350 213 254 261 143 136 94 106 275 142
209 225 234 239 239 247 249 252 250 254 253 264 303 342 357 295 286 359 294 353 317 305 273 148 174 155 179 238 241 223 243 120 241 219 171 174 199 219 237 257 288 134 149 162 129 241 159
142 174 198 209 221 218 215 221 233 246 252 271 269 283 296 238 273 277 267 257 300 279 307 164 98 209 156 246 246 250 230 200 313 180 176 176 173 207 214 240 271 143 118 178 169 130 166
32 16 289 241 235 230 235 225 211 204 218 239 252 261 278 270 257 272 279 272 265 259 250 234 206 186 236 199 293 353 288 222 238 254 356 251 202 213 194 216 115 191 68 218 192 199 201